EW8718 Weather Reports


time (UTC)temp
C
wind
direction
speed
KPH
gust
KPH
rain 1hr
cm
rain 24hr
cm
rain mn
cm
humidity
%
barometer
mb
20260507114546 -17 0.0 0.0 0.00 0.00 0.00 1003.8
20260507113042 25 355 0.0 0.0 0.00 0.00 0.00 52 1003.8
20260507111539 25 355 0.0 0.0 0.00 0.00 0.00 52 1003.6
20260507110009 25 355 1.6 0.0 0.00 0.00 0.00 50 1003.3
20260507104508 25 9 6.4 0.0 0.00 0.00 0.00 45 1003.2
20260507103002 25 9 3.2 0.0 0.00 0.00 0.00 49 1002.8
20260507101601 26 9 1.6 0.0 0.00 0.00 0.00 45 1002.8
20260507100057 26 9 0.0 0.0 0.00 0.00 0.00 44 1002.9
20260507094609 26 9 1.6 0.0 0.00 0.00 0.00 42 1002.9
20260507093023 26 5 3.2 0.0 0.00 0.00 0.00 41 1002.5
20260507091521 27 360 1.6 0.0 0.00 0.00 0.00 39 1003.0
20260507090009 27 360 4.8 0.0 0.00 0.00 0.00 40 1003.3
20260507084510 27 360 8.0 0.0 0.00 0.00 0.00 35 1003.4
20260507083006 27 355 4.8 0.0 0.00 0.00 0.00 26 1003.8
20260507081511 28 355 6.4 0.0 0.00 0.00 0.00 23 1003.6
20260507080003 28 355 6.4 0.0 0.00 0.00 0.00 22 1003.7
20260507074601 28 355 8.0 0.0 0.00 0.00 0.00 14 1003.6
20260507073102 30 355 4.8 0.0 0.00 0.00 0.00 12 1003.9
20260507071602 30 321 11.3 0.0 0.00 0.00 0.00 13 1003.7
20260507070012 29 327 9.7 0.0 0.00 0.00 0.00 14 1003.4
20260507064505 27 332 12.9 0.0 0.00 0.00 0.00 14 1003.6
20260507063000 27 295 3.2 0.0 0.00 0.00 0.00 14 1003.6
20260507061559 28 295 3.2 0.0 0.00 0.00 0.00 14 1003.8
20260507060110 28 295 6.4 0.0 0.00 0.00 0.00 14 1003.7
20260507054600 28 295 4.8 0.0 0.00 0.00 0.00 13 1003.7
20260507053057 28 295 8.0 0.0 0.00 0.00 0.00 13 1003.7
20260507051556 28 300 3.2 0.0 0.00 0.00 0.00 12 1003.6
20260507050051 29 342 4.8 0.0 0.00 0.00 0.00 12 1003.4
20260507044549 29 355 3.2 0.0 0.00 0.00 0.00 12 1003.2
20260507043046 29 13 0.0 0.0 0.00 0.00 0.00 12 1002.8
20260507041543 28 13 0.0 0.0 0.00 0.00 0.00 13 1002.6
20260507040011 29 13 1.6 0.0 0.00 0.00 0.00 13 1002.2
20260507034509 30 13 0.0 0.0 0.00 0.00 0.00 12 1002.0
20260507033005 29 13 0.0 0.0 0.00 0.00 0.00 12 1001.6
20260507031504 30 13 0.0 0.0 0.00 0.00 0.00 12 1001.5
20260507030100 29 13 0.0 0.0 0.00 0.00 0.00 12 1001.2
20260507024600 30 13 0.0 0.0 0.00 0.00 0.00 11 1000.9
20260507023025 30 13 0.0 0.0 0.00 0.00 0.00 11 1000.7
20260507021521 30 13 0.0 0.0 0.00 0.00 0.00 10 1000.5
20260507020016 31 13 0.0 0.0 0.00 0.00 0.00 10 1000.4
20260507014522 31 13 0.0 0.0 0.00 0.00 0.00 9 1000.1
20260507013009 32 13 0.0 0.0 0.00 0.00 0.00 9 999.8
20260507011508 32 13 3.2 0.0 0.00 0.00 0.00 9 999.7
20260507004555 33 15 8.0 0.0 0.00 0.00 0.00 8 999.2
20260507003152 34 17 9.7 0.0 0.00 0.00 0.00 9 998.8
20260507001555 35 19 11.3 0.0 0.00 0.00 0.00 8 998.3
20260507000046 35 19 9.7 0.0 0.00 0.00 0.00 8 998.2
20260506234514 35 21 8.0 0.0 0.00 0.00 0.00 8 998.2
20260506233016 35 22 6.4 0.0 0.00 0.00 0.00 8 998.2
20260506231509 35 22 6.4 0.0 0.00 0.00 0.00 8 998.2
20260506230013 36 22 4.8 0.0 0.00 0.00 0.00 8 998.2
20260506224504 35 22 8.0 0.0 0.00 0.00 0.00 8 998.2
20260506223004 35 22 9.7 0.0 0.00 0.00 0.00 8 998.3
20260506221501 36 21 6.4 0.0 0.00 0.00 0.00 8 998.6
20260506220002 35 21 8.0 0.0 0.00 0.00 0.00 8 998.8
20260506214609 35 25 8.0 0.0 0.00 0.00 0.00 8 999.1
20260506213059 35 19 4.8 0.0 0.00 0.00 0.00 8 999.2
20260506211533 35 18 9.7 0.0 0.00 0.00 0.00 8 999.4
20260506210030 35 30 3.2 0.0 0.00 0.00 0.00 8 999.9
20260506204611 35 30 8.0 0.0 0.00 0.00 0.00 9 1000.1
20260506203058 35 41 4.8 0.0 0.00 0.00 0.00 9 1000.4
20260506201555 35 29 4.8 0.0 0.00 0.00 0.00 9 1000.8
20260506200056 35 27 3.2 0.0 0.00 0.00 0.00 9 1001.0
20260506194553 35 27 1.6 0.0 0.00 0.00 0.00 9 1001.2
20260506193053 35 27 3.2 0.0 0.00 0.00 0.00 9 1001.6
20260506191524 34 27 3.2 0.0 0.00 0.00 0.00 9 1001.9
20260506190023 33 27 3.2 0.0 0.00 0.00 0.00 9 1002.1
20260506184523 33 27 3.2 0.0 0.00 0.00 0.00 9 1002.5
20260506183018 33 27 4.8 0.0 0.00 0.00 0.00 10 1002.7
20260506181515 33 27 4.8 0.0 0.00 0.00 0.00 10 1003.0
20260506180013 32 27 4.8 0.0 0.00 0.00 0.00 11 1003.2
20260506174508 32 30 3.2 0.0 0.00 0.00 0.00 11 1003.3
20260506173005 32 35 6.4 0.0 0.00 0.00 0.00 12 1003.7
20260506171502 32 36 3.2 0.0 0.00 0.00 0.00 12 1003.9
20260506170100 32 36 0.0 0.0 0.00 0.00 0.00 12 1004.0
20260506164556 31 36 3.2 0.0 0.00 0.00 0.00 12 1004.1
20260506163055 31 36 3.2 0.0 0.00 0.00 0.00 12 1004.1
20260506161553 30 36 4.8 0.0 0.00 0.00 0.00 13 1004.2
20260506160047 30 36 4.8 0.0 0.00 0.00 0.00 13 1004.3
20260506154514 30 36 4.8 0.0 0.00 0.00 0.00 13 1004.3
20260506153012 30 36 3.2 0.0 0.00 0.00 0.00 13 1004.3
20260506151508 29 36 3.2 0.0 0.00 0.00 0.00 13 1004.4
20260506150008 29 36 0.0 0.0 0.00 0.00 0.00 13 1004.4
20260506144516 28 36 0.0 0.0 0.00 0.00 0.00 14 1004.3
20260506143006 28 36 0.0 0.0 0.00 0.00 0.00 14 1004.5
20260506141601 28 36 1.6 0.0 0.00 0.00 0.00 15 1004.3
20260506140119 28 36 0.0 0.0 0.00 0.00 0.00 13 1004.1
20260506134556 28 36 0.0 0.0 0.00 0.00 0.00 14 1003.9
20260506133125 26 36 0.0 0.0 0.00 0.00 0.00 15 1003.8
20260506131551 25 32 0.0 0.0 0.00 0.00 0.00 18 1003.6
20260506130131 23 32 0.0 0.0 0.00 0.00 0.00 20 1003.5
20260506124548 -17 0.0 0.0 0.00 0.00 0.00 1003.3
20260506123045 -17 0.0 0.0 0.00 0.00 0.00 1003.1
20260506121535 -17 0.0 0.0 0.00 0.00 0.00 1003.0
20260506120033 -17 0.0 0.0 0.00 0.00 0.00 1003.0